IABS R/B, 22916

Orbit data source: Space-Track

IABS R/B, 22916 is space debris in GEO originally from a launch on Sun, 28 Nov 1993 UTC launched from the Air Force Eastern Test Range (AFETR). Debris objects in space refer to the collection of defunct objects orbiting the Earth. Examples of debris include non-operational satellites, rocket bodies, and fragments generated from explosions, collisions, or faulty payload assembly.

Loading next visibility...
IABS R/B details
Identifier
22916, 1993-074B
Orbit
GEO
Last TLE update1 day ago
Origin
Flag of USUSAF SMC (US)
ManufacturerMM/Valley Forge
MissionSpacecraft
Bus & MotorR-4D, R-4D-12 X2
Mass270 kg wet, 270 kg dry
Launch date (UTC)
1993-11-28 (31 years ago)
Launch vehicleUnknown
Launch site
Air Force Eastern Test Range (AFETR)
Object type
Payload
Rocket body
Debris
Shape & HBRCyl, 2.9 m
Radar Cross Section4.851 m²

Expand to show TLE details & history

TLE from 1 day ago
0 IABS R/B
1 22916U 93074B   25034.94084442  .00000051  00000-0  00000-0 0  9998
2 22916  14.1378 345.7443 0063856  93.7701 266.9863  0.99976951 20929
Epoch: 2025-02-03T22:34Z
Definitive object data (Epoch: 2025-02-03T22:34:48.957Z)
Latitude0.00001°
Longitude-127.27874°
Altitude35,885.89 km
Speed3.07 km/s
True Right ascension23h 03m 06s
True Declination0° 00' 00"
Sunlit
Object was in daylight at TLE epoch
Visualization TLE readout
Latitude13.99569°
Longitude-45.9812°
Altitude35,605.143 km
Speed3.091 km/s
Apparent Right ascension04h 16m 08s
Apparent Declination9° 30' 04"
Sunlit
Object is in daylight
Visualization observer readout
Local Sidereal Time06:00:52
Azimuth224.603° SW
Elevation51.697°
Doppler factor1
Orbital elements
Apogee altitude36,140.208 km
Perigee altitude35,600.643 km
Semi-major axis42,248.563 km
Eccentricity0.0063856
Inclination14.1378°
RAAN345.7443°
Arg. of periapsis93.7701°
True anomaly266.2559°
Mean anomaly266.9863°
Eccentric anomaly266.62107°
Mean motion0.24993 °/min
BSTARUnknown
Orbital period1440.38 mins
Loading historical data...
22916 neighbors
Authenticating...
Loading maneuver chart data...
Loading historical data...
Loading historical data...
Loading historical data...
Loading historical data...
Loading historical data...
Loading historical data...
Loading historical data...
Other satellites on launch #74 in the year 1993 (1993-11-28 UTC)

IABS R/B Visibility forecast

Observer location: undefined°, undefined

Span
Click to sort rows by Start time (UTC) header in descending order
Start Az.
Max El. time (UTC)
Max El. Az.
Max El.
End time (UTC)
End Az.
1440 mins2025-02-05 03:59:06.646Z224.585° SW2025-02-05 04:58:06.646Z223.74° SW38.281°2025-02-06 03:59:06.646Z226.141° WSW
|